Flag for Germany Weather past 2 weeks in Aalen, Baden-Württemberg, Germany

Now
52 °F

Drizzle. Dense fog.


Feels Like: 51 °F
Forecast: 55 / 71 °F
Wind: 5 mph from East

Location: Stoetten

Current Time: Sep 3, 2014 at 9:33:55 AM

Latest Report: Sep 3, 2014 at 9:00 AM


Visibility: 0 mi

Pressure: 30.12 "Hg

Humidity: 100%

Dew point: 52 °F

Location of AalenLocation

Historic Weather in Aalen — Graph

°F

Aalen temperature yesterday

Maximum temperature yesterday: 56 °F (at 6:00 PM)
Minimum temperature yesterday: 49 °F (at 7:00 AM)
Average temperature yesterday: 52 °F

Past Weeks' High & Low Weather Summary

 TemperatureHumidityPressure
High68 °F (Aug 28, 6:00 PM)100% (Aug 24, 5:00 AM)30.18 "Hg (Aug 24, 5:00 AM)
Low44 °F (Aug 24, 3:00 AM)46% (Aug 21, 2:00 PM)29.69 "Hg (Aug 26, 8:00 AM)
Average55 °F83%30.02 "Hg
* Reported Aug 19 8:00 AM — Sep 3 8:00 AM, Aalen, Weather by CustomWeather, © 2014

Note: Actual official high and low records may vary slightly from our data, if they occured in-between our weather recording intervals... More about our weather records

Advertising

Aalen weather history for previous 24 hours

 ConditionsComfort  
Time TempWeatherWind HumidityBarometerVisibility
8:00 AM
Sep 3
53 °FDrizzle. Low clouds.5 mph99%30.12 "Hg2 mi
7:00 AM53 °FLow clouds.5 mph99%30.12 "Hg3 mi
6:00 AM53 °FLow clouds.6 mph97%30.11 "Hg4 mi
5:00 AM53 °FDrizzle. Low clouds.2 mph99%30.12 "Hg0 mi
4:00 AM53 °FFog.3 mph97%30.13 "Hg3 mi
3:00 AM53 °FFog.2 mph98%30.14 "Hg2 mi
2:00 AM53 °FFog.2 mph97%30.15 "Hg3 mi
1:00 AM52 °FFog.2 mph98%30.16 "Hg2 mi
12:00 AM53 °FFog.2 mph98%30.17 "Hg2 mi
11:00 PM
Sep 2
52 °FFog.2 mph97%30.18 "Hg3 mi
10:00 PM52 °FLow clouds.2 mph98%30.18 "Hg1 mi
9:00 PM52 °FPassing clouds.2 mph97%30.17 "Hg10 mi
8:00 PM53 °FLow clouds.2 mph96%30.15 "Hg14 mi
7:00 PM54 °FRain showers. Overcast.3 mph96%30.14 "Hg11 mi
6:00 PM56 °FLow clouds.5 mph90%30.13 "Hg9 mi
5:00 PM55 °FLow clouds.5 mph90%30.13 "Hg9 mi
4:00 PM55 °FLow clouds.3 mph89%30.14 "Hg10 mi
3:00 PM55 °FLow clouds.3 mph88%30.15 "Hg7 mi
2:00 PM55 °FSprinkles. Overcast.5 mph87%30.15 "Hg4 mi
1:00 PM55 °FOvercast.3 mph84%30.14 "Hg7 mi
12:00 PM55 °FLight rain. Overcast.5 mphN/A30.14 "Hg7 mi
11:00 AM54 °FLow clouds.3 mph88%30.15 "Hg5 mi
10:00 AM53 °FFog.3 mph92%30.15 "Hg4 mi
9:00 AM51 °FFog.2 mph94%30.15 "Hg4 mi
Weather by CustomWeather, © 2014

See weather overviewHow to use our weather pages